Weather History for KCSV - June, 2013

Change the Weather History Date:

Wednesday, June 26, 2013

  Actual Average Record
Temperature  
Mean Temperature 76 °F 73 °F  
Max Temperature 85 °F 83 °F 94 °F (1954)
Min Temperature 67 °F 64 °F 42 °F (1974)
Degree Days  
Heating Degree Days 0    
Month to date heating degree days 0  
Since 1 June heating degree days 0  
Since 1 July heating degree days 4343  
Cooling Degree Days 11    
Month to date cooling degree days 157  
Year to date cooling degree days 237  
Since 1 June cooling degree days 157  
Growing Degree Days 25 (Base 50)    
Moisture  
Dew Point 67 °F    
Average Humidity 76    
Maximum Humidity 97    
Minimum Humidity 55    
Precipitation  
Precipitation 0.00 in 0.15 in 1.98 in (2006)
Month to date precipitation 3.49 4.00  
Year to date precipitation 33.52 28.38  
Sea Level Pressure  
Sea Level Pressure 30.01 in    
Wind  
Wind Speed 4 mph (WSW)    
Max Wind Speed 15 mph    
Max Gust Speed 22 mph    
Visibility 6 miles    
Events Fog    
T = Trace of Precipitation, MM = Missing Value Source: NWS Daily Summary

Daily Weather History Graph

Daily Weather History Graph

Search for Another Location

Airport or City:

Trip Planner

Search our weather history database for the weather conditions in past years. The results will help you decide how hot, cold, wet, or windy it might be!

Date:

Astronomy

Jun. 26, 2013 Rise Set
Actual Time 5:25 AM CDT 8:00 PM CDT
Civil Twilight 4:55 AM CDT 8:31 PM CDT
Nautical Twilight 4:17 AM CDT 9:08 PM CDT
Astronomical Twilight 3:36 AM CDT 9:50 PM CDT
Moon 10:32 PM CDT (6/26) 9:08 AM CDT (6/26)
Length of Visible Light 15h 35m
Length of Day
14h 35m
Waning Gibbous, 85% of the Moon is Illuminated
Jun 26
Waning Gibbous
Jun 29
Last Quarter
Jul 8
New
Jul 15
First Quarter
Jul 22
Full

Hourly Weather History & Observations

Time (CDT) Temp. Heat Index Dew Point Humidity Pressure Visibility Wind Dir Wind Speed Gust Speed Precip Events Conditions
12:53 AM 71.1 °F - 69.1 °F 93% 30.02 in 5.0 mi Calm Calm - N/A   Clear
1:53 AM 71.1 °F - 69.1 °F 93% 30.01 in 5.0 mi Variable 3.5 mph - N/A   Clear
2:53 AM 70.0 °F - 68.0 °F 93% 30.01 in 4.0 mi Calm Calm - N/A   Clear
3:53 AM 69.1 °F - 66.9 °F 93% 30.01 in 2.0 mi Calm Calm - N/A   Clear
4:10 AM 69.8 °F - 66.2 °F 88% 30.08 in 3.0 mi Calm Calm - N/A   Clear
4:18 AM 68.0 °F - 66.2 °F 94% 30.08 in 1.2 mi Calm Calm - N/A   Clear
4:22 AM 68.0 °F - 66.2 °F 94% 30.08 in 0.8 mi Calm Calm - N/A   Mist
4:28 AM 68.0 °F - 66.2 °F 94% 30.08 in 0.5 mi Calm Calm - N/A Fog Fog
4:32 AM 68.0 °F - 66.2 °F 94% 30.08 in 1.0 mi Calm Calm - N/A   Clear
4:41 AM 68.0 °F - 66.2 °F 94% 30.08 in 2.5 mi Calm Calm - N/A   Clear
4:53 AM 68.0 °F - 66.0 °F 93% 30.03 in 3.0 mi Calm Calm - N/A   Clear
5:08 AM 66.2 °F - 66.2 °F 100% 30.09 in 1.8 mi Calm Calm - N/A   Clear
5:23 AM 66.2 °F - 66.2 °F 100% 30.09 in 2.5 mi Calm Calm - N/A   Clear
5:37 AM 68.0 °F - 66.2 °F 94% 30.10 in 1.5 mi Calm Calm - N/A   Clear
5:53 AM 68.0 °F - 66.0 °F 93% 30.03 in 3.0 mi Calm Calm - N/A   Clear
6:53 AM 70.0 °F - 68.0 °F 93% 30.05 in 5.0 mi Calm Calm - N/A   Partly Cloudy
7:53 AM 73.0 °F - 69.1 °F 87% 30.05 in 8.0 mi SW 4.6 mph - N/A   Clear
8:53 AM 77.0 °F - 70.0 °F 79% 30.04 in 10.0 mi Variable 4.6 mph - N/A   Clear
9:53 AM 78.1 °F - 69.1 °F 74% 30.04 in 10.0 mi WSW 5.8 mph - N/A   Scattered Clouds
10:53 AM 80.1 °F 82.9 °F 69.1 °F 69% 30.04 in 10.0 mi WSW 8.1 mph 18.4 mph N/A   Mostly Cloudy
11:00 AM 80.6 °F 83.2 °F 68.0 °F 65% 30.10 in 10.0 mi West 13.8 mph 21.9 mph N/A   Scattered Clouds
11:53 AM 81.0 °F 83.3 °F 66.9 °F 62% 30.02 in 10.0 mi West 12.7 mph 19.6 mph N/A   Partly Cloudy
12:53 PM 82.0 °F 84.5 °F 66.9 °F 60% 30.00 in 10.0 mi West 10.4 mph 17.3 mph N/A   Partly Cloudy
1:53 PM 82.9 °F 85.4 °F 66.9 °F 58% 29.97 in 10.0 mi WSW 9.2 mph 16.1 mph N/A   Partly Cloudy
2:53 PM 82.9 °F 85.4 °F 66.9 °F 58% 29.96 in 10.0 mi Variable 5.8 mph 16.1 mph N/A   Partly Cloudy
3:53 PM 84.0 °F 86.5 °F 66.9 °F 56% 29.94 in 10.0 mi Variable 5.8 mph - N/A   Partly Cloudy
4:53 PM 82.9 °F 85.0 °F 66.0 °F 56% 29.91 in 10.0 mi Variable 5.8 mph - N/A   Partly Cloudy
5:53 PM 82.0 °F 84.1 °F 66.0 °F 58% 29.89 in 10.0 mi SW 6.9 mph - N/A   Clear
6:53 PM 81.0 °F 83.3 °F 66.9 °F 62% 29.90 in 10.0 mi SW 4.6 mph - N/A   Clear
7:53 PM 78.1 °F - 66.9 °F 68% 29.89 in 10.0 mi Variable 3.5 mph - N/A   Clear
8:53 PM 77.0 °F - 66.9 °F 71% 29.88 in 10.0 mi Variable 4.6 mph - N/A   Clear
9:53 PM 75.0 °F - 66.9 °F 76% 29.92 in 10.0 mi SSW 4.6 mph - N/A   Clear
10:53 PM 75.0 °F - 69.1 °F 82% 29.92 in 10.0 mi Calm Calm - N/A   Scattered Clouds
11:53 PM 75.0 °F - 69.1 °F 82% 29.93 in 10.0 mi Variable 3.5 mph - N/A   Clear